Mount Sterling, KY

3:37 PM EST on January 18, 2017 (GMT -0500)
Mount Sterling-Montgomery County

Weather History for KIOB - November, 2015

Change the Weather History Date:

Thursday, November 19, 2015

  Actual Average Record
Temperature  
Mean Temperature 50 °F -  
Max Temperature 60 °F 56 °F 62 °F (2016)
Min Temperature 37 °F 35 °F 12 °F (2014)
Degree Days  
Heating Degree Days 16    
Moisture  
Dew Point 42 °F    
Average Humidity 72    
Maximum Humidity 100    
Minimum Humidity 55    
Precipitation  
Precipitation 0.00 in - - ()
Sea Level Pressure  
Sea Level Pressure 30.09 in    
Wind  
Wind Speed 8 mph (West)    
Max Wind Speed 17 mph    
Max Gust Speed 25 mph    
Visibility 10 miles    
Events      
Averages and records for this station are not official NWS values.
T = Trace of Precipitation, MM = Missing Value Source: NWS Daily Summary

Daily Weather History Graph

Daily Weather History Graph

Search for Another Location

Airport or City:

Trip Planner

Search our weather history database for the weather conditions in past years. The results will help you decide how hot, cold, wet, or windy it might be!

Date:

Astronomy

Nov. 19, 2015 Rise Set
Actual Time 7:20 AM EST 5:21 PM EST
Civil Twilight 6:52 AM EST 5:49 PM EST
Nautical Twilight 6:20 AM EST 6:21 PM EST
Astronomical Twilight 5:49 AM EST 6:53 PM EST
Moon 1:27 PM EST (11/19) No Moon Set
Length of Visible Light 10h 57m
Length of Day
10h 00m
First Quarter, 55% of the Moon is Illuminated
Nov 19
First Quarter
Nov 25
Full
Dec 3
Last Quarter
Dec 11
New
Dec 18
First Quarter

Hourly Weather History & Observations

Time (EST) Temp. Windchill Dew Point Humidity Pressure Visibility Wind Dir Wind Speed Gust Speed Precip Events Conditions
12:15 AM - - - N/A% 29.91 in 10.0 mi Calm Calm - N/A   Light Drizzle
12:35 AM - - - N/A% 29.92 in 10.0 mi WSW 5.8 mph - N/A   Overcast
12:55 AM - - - N/A% 29.93 in 10.0 mi West 5.8 mph - N/A   Scattered Clouds
1:15 AM - - - N/A% 29.94 in 10.0 mi WSW 8.1 mph - N/A   Clear
1:35 AM - - - N/A% 29.94 in 10.0 mi WSW 10.4 mph - N/A   Clear
1:55 AM - - - N/A% 29.95 in 10.0 mi WSW 6.9 mph - N/A   Clear
2:15 AM - - - N/A% 29.95 in 10.0 mi WSW 6.9 mph - N/A   Clear
2:35 AM - - - N/A% 29.96 in 10.0 mi WSW 6.9 mph - N/A   Mostly Cloudy
2:55 AM - - - N/A% 29.97 in 10.0 mi WSW 9.2 mph - N/A   Overcast
3:15 AM - - - N/A% 29.98 in 10.0 mi West 9.2 mph - N/A   Overcast
3:35 AM - - - N/A% 29.99 in 10.0 mi West 11.5 mph - N/A   Overcast
3:55 AM 51.8 °F - 48.2 °F 88% 29.98 in 10.0 mi WSW 10.4 mph - N/A   Mostly Cloudy
4:15 AM 51.8 °F - 48.2 °F 88% 29.98 in 10.0 mi WSW 9.2 mph - N/A   Mostly Cloudy
4:35 AM 51.8 °F - 48.2 °F 88% 29.99 in 10.0 mi WSW 6.9 mph - N/A   Scattered Clouds
4:55 AM 50.0 °F - 48.2 °F 94% 30.00 in 10.0 mi WSW 5.8 mph - N/A   Clear
5:15 AM 50.0 °F - 48.2 °F 94% 30.01 in 10.0 mi WSW 6.9 mph - N/A   Clear
5:35 AM 50.0 °F - 48.2 °F 94% 30.01 in 10.0 mi WSW 6.9 mph - N/A   Clear
5:55 AM 48.2 °F - 46.4 °F 93% 30.01 in 10.0 mi WSW 6.9 mph - N/A   Clear
6:15 AM 48.2 °F - 46.4 °F 93% 30.01 in 10.0 mi WSW 5.8 mph - N/A   Clear
6:35 AM 46.4 °F 43.5 °F 46.4 °F 100% 30.02 in 10.0 mi WSW 5.8 mph - N/A   Clear
6:55 AM 46.4 °F 43.5 °F 46.4 °F 100% 30.03 in 10.0 mi WSW 5.8 mph - N/A   Clear
7:15 AM 46.4 °F 43.5 °F 46.4 °F 100% 30.03 in 10.0 mi WSW 5.8 mph - N/A   Clear
7:35 AM 46.4 °F 43.5 °F 46.4 °F 100% 30.03 in 10.0 mi WSW 5.8 mph - N/A   Clear
7:55 AM 46.4 °F 43.5 °F 46.4 °F 100% 30.05 in 10.0 mi WSW 5.8 mph - N/A   Clear
8:15 AM 48.2 °F - 46.4 °F 93% 30.05 in 10.0 mi SW 5.8 mph - N/A   Clear
8:35 AM 50.0 °F - 48.2 °F 94% 30.05 in 10.0 mi WSW 6.9 mph - N/A   Clear
8:55 AM 51.8 °F - 48.2 °F 88% 30.06 in 10.0 mi WSW 8.1 mph - N/A   Clear
9:15 AM 51.8 °F - 48.2 °F 88% 30.07 in 10.0 mi WSW 10.4 mph - N/A   Clear
9:35 AM 51.8 °F - 48.2 °F 88% 30.08 in 10.0 mi WSW 12.7 mph 17.3 mph N/A   Clear
9:55 AM 53.6 °F - 46.4 °F 77% 30.08 in 10.0 mi West 12.7 mph 18.4 mph N/A   Clear
10:15 AM 53.6 °F - 46.4 °F 77% 30.09 in 10.0 mi West 12.7 mph 18.4 mph N/A   Clear
10:35 AM 55.4 °F - 44.6 °F 67% 30.10 in 10.0 mi WSW 13.8 mph 17.3 mph N/A   Clear
10:55 AM 55.4 °F - 44.6 °F 67% 30.09 in 10.0 mi WSW 12.7 mph 19.6 mph N/A   Clear
11:15 AM 57.2 °F - 42.8 °F 59% 30.09 in 10.0 mi West 15.0 mph 18.4 mph N/A   Clear
11:35 AM 59.0 °F - 42.8 °F 55% 30.09 in 10.0 mi WSW 15.0 mph 19.6 mph N/A   Clear
11:55 AM 59.0 °F - 44.6 °F 59% 30.08 in 10.0 mi West 11.5 mph 20.7 mph N/A   Clear
12:15 PM 59.0 °F - 44.6 °F 59% 30.07 in 10.0 mi West 16.1 mph 19.6 mph N/A   Clear
12:35 PM 59.0 °F - 44.6 °F 59% 30.07 in 10.0 mi West 11.5 mph 18.4 mph N/A   Clear
12:55 PM 60.8 °F - 44.6 °F 55% 30.07 in 10.0 mi West 16.1 mph 25.3 mph N/A   Clear
1:15 PM 60.8 °F - 44.6 °F 55% 30.07 in 10.0 mi West 12.7 mph 18.4 mph N/A   Clear
1:35 PM 60.8 °F - 44.6 °F 55% 30.07 in 10.0 mi West 17.3 mph 24.2 mph N/A   Scattered Clouds
1:55 PM 60.8 °F - 44.6 °F 55% 30.08 in 10.0 mi West 10.4 mph 21.9 mph N/A   Clear
2:15 PM 60.8 °F - 44.6 °F 55% 30.08 in 10.0 mi WNW 12.7 mph 19.6 mph N/A   Scattered Clouds
2:35 PM 60.8 °F - 44.6 °F 55% 30.09 in 10.0 mi West 13.8 mph 23.0 mph N/A   Mostly Cloudy
2:55 PM 59.0 °F - 44.6 °F 59% 30.09 in 10.0 mi WNW 12.7 mph 18.4 mph N/A   Overcast
3:15 PM 59.0 °F - 44.6 °F 59% 30.09 in 10.0 mi WNW 10.4 mph - N/A   Mostly Cloudy
3:35 PM 59.0 °F - 44.6 °F 59% 30.10 in 10.0 mi NW 10.4 mph 16.1 mph N/A   Scattered Clouds
3:55 PM 57.2 °F - 42.8 °F 59% 30.11 in 10.0 mi WNW 8.1 mph 17.3 mph N/A   Clear
4:15 PM 55.4 °F - 42.8 °F 63% 30.12 in 10.0 mi WNW 9.2 mph - N/A   Clear
4:35 PM 55.4 °F - 42.8 °F 63% 30.12 in 10.0 mi NW 10.4 mph 16.1 mph N/A   Clear
4:55 PM 55.4 °F - 41.0 °F 58% 30.13 in 10.0 mi WNW 10.4 mph - N/A   Scattered Clouds
5:15 PM 53.6 °F - 41.0 °F 62% 30.14 in 10.0 mi WNW 5.8 mph - N/A   Mostly Cloudy
5:35 PM 51.8 °F - 41.0 °F 67% 30.15 in 10.0 mi WNW 6.9 mph - N/A   Scattered Clouds
5:55 PM 51.8 °F - 39.2 °F 62% 30.16 in 10.0 mi NW 8.1 mph - N/A   Clear
6:15 PM 50.0 °F - 37.4 °F 62% 30.18 in 10.0 mi NW 5.8 mph - N/A   Clear
6:35 PM 50.0 °F - 37.4 °F 62% 30.19 in 10.0 mi WNW 6.9 mph - N/A   Clear
6:55 PM 48.2 °F - 37.4 °F 66% 30.19 in 10.0 mi NW 5.8 mph - N/A   Clear
7:15 PM 48.2 °F - 35.6 °F 62% 30.20 in 10.0 mi NW 5.8 mph - N/A   Clear
7:35 PM 46.4 °F 41.9 °F 33.8 °F 62% 30.22 in 10.0 mi NNW 9.2 mph - N/A   Clear
7:55 PM 46.4 °F 42.4 °F 32.0 °F 57% 30.22 in 10.0 mi NNW 8.1 mph - N/A   Clear
8:15 PM 46.4 °F 44.3 °F 32.0 °F 57% 30.23 in 10.0 mi NW 4.6 mph - N/A   Clear
8:35 PM 44.6 °F 43.1 °F 32.0 °F 61% 30.23 in 10.0 mi WNW 3.5 mph - N/A   Clear
8:55 PM 44.6 °F 43.1 °F 32.0 °F 61% 30.24 in 10.0 mi WNW 3.5 mph - N/A   Clear
9:15 PM 42.8 °F 40.1 °F 32.0 °F 66% 30.25 in 10.0 mi WNW 4.6 mph - N/A   Clear
9:35 PM 41.0 °F 38.0 °F 32.0 °F 70% 30.25 in 10.0 mi WNW 4.6 mph - N/A   Clear
9:55 PM 42.8 °F 40.1 °F 32.0 °F 66% 30.26 in 10.0 mi WNW 4.6 mph - N/A   Clear
10:15 PM 41.0 °F 38.0 °F 32.0 °F 70% 30.26 in 10.0 mi WNW 4.6 mph - N/A   Clear
10:35 PM 41.0 °F 37.1 °F 32.0 °F 70% 30.27 in 10.0 mi NW 5.8 mph - N/A   Clear
10:55 PM 42.8 °F 38.6 °F 32.0 °F 66% 30.28 in 10.0 mi NW 6.9 mph - N/A   Clear
11:15 PM 41.0 °F 37.1 °F 30.2 °F 65% 30.29 in 10.0 mi NW 5.8 mph - N/A   Clear
11:35 PM 39.2 °F 35.9 °F 30.2 °F 70% 30.29 in 10.0 mi NW 4.6 mph - N/A   Clear
11:55 PM 37.4 °F 33.8 °F 30.2 °F 75% 30.30 in 10.0 mi WNW 4.6 mph - N/A   Clear